Temperature
9 9 8 8 8 8 8 7 7 7 7 7 7 7 7 7 7 7 7 7 7 8 8 8 8 7 7 7 7 7 7 7 8 8 8 8 8 8 8 8 8 8 8
9 9 8 8 8 8 8 7 7 7 7 7 7 7 7 7 7 7 7 7 7 8 8 8 8 8 7 7 7 7 7 7 7 7 7 8 8 8 8 8 8 8 8
9 9 8 8 8 8 8 7 7 7 7 7 7 7 7 7 7 7 8 8 8 8 8 8 8 8 7 7 7 7 7 7 7 7 7 7 7 7 8 8 8 8 8
9 9 8 8 8 8 8 8 7 7 7 7 7 7 7 7 7 8 8 8 8 7 7 7 7 7 7 7 6 6 6 6 6 6 6 6 6 7 7 7 7 8 8
9 9 9 8 8 8 8 8 7 7 7 7 7 7 7 7 8 8 8 8 7 7 7 7 7 7 7 7 6 6 6 6 6 6 6 6 6 6 6 6 7 7 7
9 9 9 8 8 8 8 7 7 7 7 7 7 7 7 8 8 8 8 7 7 7 7 7 6 6 6 6 6 6 6 6 6 6 6 5 6 6 5 6 6 6 6
9 9 8 8 8 8 7 7 7 7 7 6 6 7 7 7 8 7 7 7 7 7 6 6 6 6 6 6 6 6 6 6 6 6 5 5 5 5 5 5 5 5 5
9 9 8 8 8 7 7 7 7 6 6 6 5 5 5 6 6 6 6 6 6 6 6 6 6 6 6 6 6 6 6 6 6 5 5 5 5 4 4 4 4 5 5
9 9 8 8 7 7 7 6 6 6 6 6 5 4 4 3 4 4 5 5 5 5 5 5 6 6 6 5 5 5 5 5 5 5 4 4 4 4 4 4 4 4 5
9 8 8 7 7 7 6 6 6 6 5 5 5 4 4 3 2 3 3 4 4 4 5 5 5 5 5 5 5 5 5 5 5 4 3 3 3 3 3 3 4 4 4
8 8 7 7 7 6 6 6 6 5 5 5 4 4 4 3 3 2 2 3 4 4 4 4 5 5 5 4 4 4 4 4 3 3 2 2 2 2 2 3 3 3 3
8 7 7 7 6 6 6 6 5 5 5 4 4 4 3 3 2 1 1 2 2 3 4 4 4 4 4 4 3 3 3 3 2 2 1 1 1 1 1 2 2 2 2
8 7 7 6 6 6 6 5 5 5 4 4 4 3 3 2 2 1 0 0 0 1 2 3 3 3 3 3 2 2 2 2 1 1 0 0 0 0 0 1 1 1 1
7 7 7 6 6 6 5 5 5 4 4 4 4 3 3 2 2 1 0 -1 -1 -1 -0 1 1 2 2 1 1 1 1 1 0 -0 -1 -1 -1 -1 -1 -0 -0 0 0
7 7 6 6 5 5 5 5 4 4 4 3 3 3 2 2 1 1 -0 -1 -2 -3 -3 -2 -1 -0 -0 -0 0 0 -0 -0 -1 -2 -2 -2 -2 -2 -1 -1 -1 -1 -1
7 6 6 5 5 5 4 4 4 4 3 3 3 2 2 2 1 0 -0 -1 -2 -3 -4 -3 -3 -2 -2 -1 -1 -1 -1 -2 -2 -2 -2 -2 -3 -3 -2 -2 -2 -1 -1
6 6 5 5 5 4 4 4 3 3 3 2 2 2 1 1 1 0 -1 -1 -2 -3 -4 -4 -3 -3 -3 -3 -2 -2 -2 -2 -2 -2 -3 -3 -3 -3 -3 -3 -2 -2 -2
6 5 5 5 4 4 3 3 3 2 2 2 2 1 1 0 -0 -0 -1 -2 -2 -3 -4 -4 -4 -4 -5 -4 -4 -4 -4 -4 -3 -3 -3 -3 -4 -3 -3 -3 -3 -3 -2
5 5 4 4 4 3 3 3 2 2 2 1 1 1 0 -0 -1 -1 -2 -2 -3 -3 -4 -5 -5 -5 -5 -5 -5 -5 -4 -4 -4 -4 -4 -4 -4 -4 -4 -3 -3 -3 -3
5 4 4 4 3 3 2 2 2 1 1 1 0 -0 -1 -1 -2 -2 -2 -3 -4 -4 -5 -5 -5 -5 -5 -5 -5 -5 -5 -5 -5 -5 -4 -4 -4 -4 -4 -4 -4 -3 -3
4 4 3 3 3 2 2 2 1 1 0 0 -0 -1 -1 -2 -2 -3 -4 -4 -5 -5 -5 -5 -6 -6 -6 -5 -5 -5 -6 -5 -5 -5 -5 -4 -4 -4 -4 -4 -4 -3 -3
4 3 3 3 2 2 1 1 0 -0 -0 -1 -1 -1 -2 -2 -2 -3 -4 -5 -5 -5 -6 -6 -6 -6 -6 -6 -6 -6 -6 -6 -6 -5 -5 -5 -5 -4 -4 -4 -4 -4 -4
3 3 3 2 2 1 1 0 0 -1 -1 -1 -2 -2 -2 -3 -3 -4 -4 -4 -5 -5 -6 -6 -6 -6 -6 -6 -6 -6 -6 -6 -6 -6 -5 -5 -5 -5 -4 -4 -4 -4 -4
3 2 2 2 1 1 1 0 -0 -1 -1 -2 -2 -2 -3 -3 -4 -4 -5 -5 -5 -5 -6 -6 -6 -6 -6 -6 -6 -6 -6 -6 -5 -5 -5 -6 -5 -5 -4 -4 -4 -4 -4
2 2 2 1 1 1 0 -0 -1 -2 -2 -2 -3 -3 -4 -4 -5 -5 -6 -6 -6 -6 -6 -6 -6 -6 -6 -6 -6 -6 -6 -6 -6 -6 -5 -6 -5 -5 -5 -4 -4 -4 -4
2 1 1 1 0 -0 -0 -1 -1 -2 -3 -3 -3 -4 -4 -5 -5 -6 -6 -6 -6 -6 -6 -6 -6 -6 -6 -6 -6 -6 -6 -7 -7 -7 -6 -6 -6 -6 -5 -5 -4 -4 -5
Wind_Speed
7 7 7 7 8 8 7 6 6 6 6 7 8 8 9 11 12 13 14 14 14 15 17 18 18 18 18 18 18 17 17 17 17 17 17 17 18 18 18 18 18 17 17
9 7 7 7 7 8 8 7 6 5 6 6 7 8 9 11 12 13 14 14 14 15 16 17 18 18 18 18 18 18 17 17 17 17 18 18 18 18 19 20 20 20 20
10 8 5 5 7 7 6 5 5 4 4 4 5 7 8 10 11 12 13 13 14 14 14 15 16 16 17 17 17 17 17 17 17 18 18 18 19 19 20 20 21 21 22
9 7 5 4 6 5 4 3 2 2 3 3 4 4 6 8 10 11 11 11 11 11 12 12 13 13 14 14 15 16 17 17 18 18 18 18 19 19 20 21 21 22 22
7 6 4 4 4 3 2 2 1 1 2 3 4 4 4 5 7 8 8 9 9 9 9 9 10 11 13 14 15 16 17 17 18 19 19 19 19 20 20 21 22 22 23
5 5 3 3 3 2 1 1 1 1 2 3 4 5 5 5 4 4 6 6 7 7 7 7 8 10 13 15 16 17 18 18 19 19 20 20 20 21 21 21 22 23 23
5 5 3 2 2 2 1 1 1 0 1 1 2 4 5 4 4 3 3 3 5 6 6 7 9 12 13 16 18 19 20 20 20 20 21 21 21 22 22 23 23 23 24
5 4 4 2 2 2 2 1 1 1 1 1 1 2 5 6 5 3 4 4 4 6 7 10 13 14 15 15 17 20 21 21 21 21 22 22 22 23 24 24 24 25 25
6 6 5 4 3 2 2 1 1 1 0 1 1 1 1 4 4 4 4 4 4 4 5 11 13 15 16 16 17 18 20 21 22 22 23 23 23 24 24 25 25 25 26
6 6 6 5 4 2 2 1 1 1 2 1 1 2 3 3 3 5 4 4 5 5 6 8 11 15 17 17 18 20 21 22 22 23 23 24 24 24 25 25 26 26 26
5 6 6 5 3 2 2 1 1 1 2 2 2 2 2 2 5 5 7 5 4 5 6 7 9 13 16 17 17 18 21 22 23 24 24 25 25 26 26 26 26 27 27
2 4 5 4 3 2 1 0 1 1 2 2 3 3 3 3 4 5 7 7 8 5 6 7 7 9 13 15 17 20 23 24 25 25 26 26 26 27 27 27 27 27 27
1 1 2 2 1 1 0 0 1 1 2 3 3 4 4 5 4 4 5 7 6 5 5 4 5 8 13 14 15 21 23 25 26 26 27 27 27 27 28 28 28 28 28
3 2 2 1 1 0 0 0 1 2 2 3 5 5 4 5 5 5 4 5 7 5 4 6 4 7 10 12 17 24 21 24 26 27 27 28 28 28 28 29 29 29 29
3 3 2 1 0 0 1 1 2 3 3 4 5 5 5 5 5 5 5 5 5 7 7 5 4 4 8 15 20 20 18 23 26 27 28 28 28 29 29 29 29 29 29
3 3 2 1 1 1 2 2 3 4 4 5 4 6 6 5 5 5 6 6 6 8 9 4 5 7 11 16 21 21 20 27 27 27 27 27 28 28 28 28 28 28 28
4 3 3 2 2 3 3 3 4 5 5 6 6 6 8 7 6 6 6 6 7 7 13 11 6 7 9 12 15 18 20 19 20 25 27 27 27 27 27 27 27 27 27
4 3 3 3 3 4 4 5 6 6 6 7 8 7 8 7 8 7 7 8 8 8 10 16 10 7 9 11 12 13 14 17 17 24 27 27 27 27 27 26 26 26 26
3 3 3 4 5 5 5 6 6 7 7 8 8 8 9 8 9 8 8 8 8 10 9 12 14 9 8 9 10 11 12 11 15 20 23 24 25 26 26 26 26 25 24
4 4 4 5 6 6 6 7 7 8 8 9 9 9 9 9 10 10 9 10 10 10 11 12 13 11 9 9 8 9 10 8 10 12 17 21 24 25 25 25 25 24 23
5 5 5 6 6 6 6 7 7 8 9 9 9 9 10 12 15 13 12 9 9 9 10 11 13 12 10 7 7 7 12 10 10 10 11 11 11 10 13 20 22 22 23
5 5 6 6 7 6 11 14 12 8 8 9 9 9 10 13 16 20 22 22 19 14 11 12 13 13 13 10 9 10 11 13 12 5 7 9 7 10 9 9 19 23 23
5 6 6 7 8 10 15 17 17 11 8 8 9 9 10 10 16 10 17 22 21 24 23 17 16 15 14 12 12 14 13 14 15 8 9 13 9 11 9 13 22 23 23
5 6 7 8 8 11 16 18 19 12 8 9 9 10 11 11 12 13 12 12 13 14 17 14 13 15 15 14 14 16 16 15 13 9 9 11 9 9 10 8 19 22 22
6 6 7 8 9 11 17 19 19 9 8 10 10 10 11 11 19 23 16 13 14 12 18 23 24 23 26 26 20 11 10 11 12 7 5 6 7 8 8 8 11 17 16
6 7 7 8 9 10 16 19 20 8 8 9 9 10 17 18 22 24 15 12 15 14 11 13 16 18 15 16 20 12 9 11 11 7 5 5 5 4 5 4 4 4 5
Wind_Direction
196 205 216 225 230 230 227 231 241 253 264 272 274 272 276 280 283 284 286 291 297 302 305 307 307 306 304 302 300 297 295 293 291 290 288 284 279 275 273 270 269 268 267
200 205 215 220 229 229 228 229 237 247 259 266 272 274 275 280 281 280 282 287 292 299 304 307 308 307 305 303 301 299 297 295 294 293 292 290 288 284 278 273 270 267 265
206 205 206 217 229 228 224 228 239 242 253 261 269 275 274 274 274 277 281 285 289 295 303 310 313 313 311 309 307 305 304 302 299 296 294 292 290 288 286 282 277 271 267
206 198 199 218 226 213 208 212 216 239 258 269 276 278 276 278 277 279 283 286 291 296 302 312 321 326 327 324 320 315 312 309 306 301 297 294 292 290 288 286 283 280 275
193 186 192 206 197 182 192 205 203 219 264 280 279 278 275 272 278 288 290 294 298 302 307 317 328 337 339 336 331 326 320 315 311 306 302 298 295 292 290 288 285 283 281
167 166 167 172 159 148 166 171 219 226 251 282 294 292 283 285 293 289 290 300 309 317 321 325 332 336 336 334 331 327 319 314 310 307 304 300 297 294 291 289 286 285 283
138 139 133 125 127 145 161 161 180 273 301 338 337 319 309 313 313 291 292 306 318 327 332 332 330 326 323 323 324 321 317 313 308 304 301 299 296 293 291 288 286 283 282
119 124 123 116 113 122 96 92 104 74 350 30 40 345 335 335 336 325 324 310 311 323 324 323 319 313 310 309 310 314 313 309 305 302 299 296 294 291 289 287 285 283 280
102 106 109 108 102 110 109 98 122 137 255 329 168 174 298 293 305 305 303 300 301 305 306 308 304 301 301 299 300 304 305 305 303 300 297 295 293 291 289 287 284 282 280
92 100 103 104 100 100 105 109 125 156 166 248 286 235 224 222 268 302 299 289 289 287 287 291 292 294 294 293 294 299 302 301 299 298 297 295 293 291 289 288 286 284 282
81 93 100 100 98 98 108 103 103 157 182 203 218 236 255 250 232 254 285 293 295 265 266 270 279 283 287 288 289 294 299 300 299 298 297 295 293 291 290 288 287 286 285
76 80 94 95 97 96 100 121 163 198 210 221 224 215 215 232 234 237 265 286 292 277 268 263 267 274 283 287 290 299 302 301 299 297 296 294 293 291 290 288 287 286 285
126 110 96 98 97 102 134 171 193 243 228 232 237 236 230 233 231 235 260 280 285 288 276 265 258 275 287 290 296 303 303 300 298 296 295 293 291 290 288 287 286 285 284
166 157 135 125 121 92 315 230 232 254 240 244 250 247 246 248 237 231 238 271 295 289 269 269 276 270 281 293 300 303 299 298 298 296 294 292 291 289 287 285 284 283 282
163 152 144 144 167 264 267 249 249 263 260 254 254 255 252 253 247 242 237 232 251 288 291 260 263 271 288 296 297 295 289 294 296 295 294 293 291 289 287 285 283 282 280
159 154 158 175 222 258 263 249 260 262 261 262 254 255 255 255 253 247 241 239 233 254 278 261 262 275 287 292 294 296 292 295 296 296 294 292 290 288 286 284 283 282 280
171 178 191 209 239 256 256 253 259 264 262 267 265 259 260 260 258 254 247 243 245 246 272 281 261 268 270 277 286 286 287 286 287 291 293 292 291 289 287 285 283 282 281
187 196 206 229 249 255 256 255 264 266 262 266 268 266 266 269 261 258 253 251 252 247 263 283 285 273 264 267 273 275 282 284 283 288 291 291 291 291 289 287 285 283 281
202 216 224 241 253 258 261 258 256 260 259 259 262 262 265 265 267 264 257 258 260 263 260 274 284 279 271 268 270 272 273 275 280 284 288 290 290 290 289 288 287 286 285
215 234 241 248 254 259 261 262 260 259 260 260 258 257 258 256 261 265 267 262 262 264 266 272 282 283 276 267 264 273 280 270 272 277 281 283 284 286 288 289 289 288 287
231 241 252 262 263 263 259 258 256 255 257 262 262 258 257 266 272 277 277 267 263 268 272 277 283 286 282 275 271 272 282 283 273 266 270 271 273 273 277 281 284 285 284
248 250 256 262 269 270 281 288 286 265 258 260 267 266 266 275 282 287 288 288 286 282 281 280 283 283 283 278 279 280 284 287 287 246 255 269 262 268 266 261 273 277 278
248 259 263 262 265 274 288 293 294 290 270 264 265 269 276 276 288 278 283 286 285 283 283 282 281 281 283 281 279 280 277 277 279 272 274 279 268 269 266 269 276 278 279
251 258 263 265 268 278 291 296 298 293 275 266 263 263 267 271 273 280 271 269 264 267 272 275 270 272 272 273 268 272 277 280 276 267 258 275 273 270 271 265 275 277 278
258 259 262 267 270 280 291 297 298 283 273 269 266 264 269 269 279 288 288 281 279 274 279 280 279 281 283 288 290 290 287 287 288 278 242 258 272 274 273 271 271 276 279
258 268 271 268 268 273 287 294 296 282 277 277 271 265 277 283 288 291 288 282 285 285 278 280 281 282 283 284 287 282 277 280 282 282 250 244 266 276 283 269 270 279 286
Height
1554 1555 1555 1555 1556 1556 1556 1555 1555 1554 1553 1552 1552 1551 1550 1549 1547 1546 1545 1544 1543 1542 1541 1540 1539 1539 1538 1538 1538 1537 1536 1536 1535 1535 1534 1534 1534 1533 1533 1533 1533 1533 1532
1552 1553 1553 1553 1554 1554 1553 1553 1552 1551 1551 1550 1549 1548 1547 1545 1544 1543 1542 1541 1540 1538 1537 1536 1535 1534 1533 1533 1533 1532 1532 1531 1531 1530 1529 1529 1529 1529 1529 1528 1528 1528 1528
1550 1550 1551 1551 1551 1551 1551 1550 1549 1549 1548 1547 1546 1544 1543 1542 1540 1539 1538 1537 1536 1534 1533 1531 1530 1529 1528 1528 1528 1527 1527 1526 1526 1525 1524 1524 1523 1523 1523 1523 1523 1523 1523
1547 1548 1548 1548 1548 1548 1547 1547 1546 1545 1544 1543 1542 1541 1539 1538 1536 1535 1534 1533 1531 1530 1529 1528 1526 1525 1524 1523 1522 1522 1521 1521 1520 1520 1519 1518 1517 1517 1517 1516 1516 1517 1517
1545 1545 1545 1545 1545 1544 1544 1543 1543 1542 1540 1539 1537 1536 1535 1533 1532 1531 1530 1529 1528 1527 1526 1525 1523 1522 1520 1519 1518 1517 1516 1515 1514 1514 1513 1512 1512 1511 1510 1510 1510 1510 1510
1542 1542 1542 1542 1541 1541 1541 1540 1539 1538 1537 1535 1533 1531 1530 1529 1527 1526 1525 1525 1524 1523 1522 1521 1520 1518 1517 1515 1513 1512 1511 1510 1509 1508 1507 1506 1505 1505 1504 1503 1503 1503 1503
1538 1539 1539 1538 1538 1538 1537 1536 1535 1534 1533 1531 1529 1526 1525 1524 1522 1521 1522 1522 1521 1520 1519 1517 1516 1514 1512 1511 1509 1507 1505 1504 1503 1502 1500 1499 1499 1498 1497 1497 1496 1496 1495
1535 1535 1535 1535 1535 1534 1534 1533 1532 1531 1530 1528 1527 1523 1521 1519 1518 1518 1518 1517 1517 1516 1515 1513 1511 1509 1507 1505 1503 1501 1499 1497 1496 1495 1494 1493 1492 1491 1490 1490 1489 1489 1488
1532 1532 1532 1532 1532 1531 1530 1530 1529 1528 1527 1526 1525 1524 1521 1517 1515 1512 1512 1511 1511 1510 1509 1508 1506 1504 1502 1499 1497 1495 1493 1491 1489 1488 1486 1485 1484 1483 1483 1482 1482 1481 1481
1530 1530 1529 1529 1529 1528 1527 1527 1526 1525 1524 1523 1522 1521 1520 1517 1514 1508 1505 1506 1505 1503 1502 1501 1499 1497 1495 1493 1490 1488 1485 1483 1481 1480 1479 1478 1476 1476 1475 1474 1473 1473 1472
1527 1527 1527 1526 1526 1525 1524 1524 1523 1522 1521 1520 1518 1517 1516 1514 1511 1508 1500 1497 1497 1496 1495 1493 1492 1490 1488 1485 1483 1480 1478 1476 1474 1472 1470 1469 1468 1467 1466 1465 1464 1463 1463
1525 1524 1524 1523 1523 1522 1521 1521 1519 1518 1517 1516 1514 1513 1511 1509 1507 1504 1498 1492 1488 1487 1486 1486 1485 1483 1480 1478 1475 1472 1469 1467 1465 1463 1461 1460 1458 1457 1456 1455 1454 1454 1453
1522 1521 1521 1520 1520 1519 1518 1517 1516 1515 1513 1512 1510 1508 1506 1504 1502 1499 1494 1488 1483 1478 1477 1476 1476 1475 1472 1469 1466 1464 1460 1458 1456 1454 1452 1450 1449 1447 1446 1445 1444 1444 1443
1518 1518 1518 1517 1517 1516 1514 1513 1512 1510 1509 1507 1505 1503 1501 1499 1497 1494 1490 1485 1478 1472 1469 1468 1467 1467 1465 1461 1458 1455 1451 1449 1446 1444 1442 1441 1439 1437 1436 1435 1434 1433 1433
1515 1515 1514 1514 1513 1512 1510 1509 1507 1506 1504 1502 1500 1497 1495 1493 1491 1488 1485 1482 1478 1468 1461 1459 1459 1458 1457 1453 1450 1446 1443 1440 1437 1435 1433 1431 1429 1427 1426 1425 1424 1423 1423
1512 1511 1511 1510 1509 1507 1506 1504 1502 1500 1498 1496 1494 1492 1489 1487 1484 1482 1479 1476 1473 1467 1458 1452 1452 1451 1448 1445 1443 1439 1435 1432 1429 1426 1424 1421 1419 1418 1416 1415 1414 1413 1413
1508 1508 1507 1505 1504 1503 1501 1499 1497 1495 1493 1491 1489 1486 1483 1481 1478 1475 1472 1469 1466 1462 1452 1445 1445 1443 1440 1438 1434 1431 1428 1424 1421 1418 1416 1413 1411 1409 1408 1406 1405 1404 1403
1504 1503 1502 1501 1499 1498 1496 1494 1492 1490 1487 1485 1482 1480 1477 1474 1471 1468 1465 1461 1458 1454 1448 1439 1436 1435 1432 1430 1427 1423 1420 1417 1414 1411 1408 1405 1403 1401 1399 1398 1396 1395 1394
1500 1499 1498 1496 1494 1493 1491 1488 1486 1483 1481 1478 1476 1473 1470 1467 1463 1460 1456 1453 1449 1446 1441 1435 1428 1427 1424 1422 1419 1416 1413 1410 1407 1404 1401 1398 1395 1393 1391 1389 1388 1387 1385
1495 1494 1493 1491 1489 1487 1485 1482 1480 1477 1474 1472 1469 1466 1463 1459 1455 1452 1448 1444 1441 1437 1434 1429 1423 1419 1417 1414 1412 1408 1404 1401 1398 1396 1393 1390 1388 1385 1383 1381 1380 1378 1377
1490 1489 1488 1486 1484 1482 1479 1476 1473 1469 1466 1463 1461 1458 1455 1452 1448 1444 1441 1437 1434 1430 1426 1422 1416 1412 1409 1407 1405 1401 1397 1392 1389 1388 1384 1381 1380 1377 1375 1373 1371 1370 1368
1485 1484 1482 1480 1478 1476 1473 1470 1466 1462 1459 1456 1452 1450 1447 1444 1440 1436 1433 1430 1427 1423 1419 1415 1410 1406 1402 1400 1397 1394 1390 1385 1380 1379 1377 1372 1372 1368 1366 1365 1363 1362 1360
1480 1478 1476 1474 1471 1469 1466 1463 1459 1455 1451 1448 1445 1441 1437 1434 1431 1427 1423 1420 1417 1415 1412 1409 1403 1398 1395 1392 1390 1385 1382 1378 1373 1371 1370 1364 1363 1360 1359 1357 1356 1354 1353
1474 1472 1470 1467 1465 1462 1459 1456 1452 1447 1443 1440 1437 1433 1429 1425 1422 1418 1413 1410 1407 1404 1402 1399 1395 1390 1387 1384 1381 1378 1374 1369 1365 1364 1363 1358 1355 1353 1351 1349 1348 1347 1346
1467 1465 1463 1460 1457 1454 1452 1448 1444 1438 1434 1430 1428 1424 1421 1416 1413 1410 1407 1402 1397 1394 1393 1390 1386 1383 1379 1377 1374 1370 1366 1362 1357 1355 1355 1352 1348 1346 1343 1341 1341 1340 1339
1460 1458 1455 1453 1450 1446 1443 1440 1436 1430 1425 1421 1418 1415 1413 1409 1405 1403 1399 1394 1389 1385 1382 1378 1376 1373 1370 1367 1365 1363 1359 1355 1351 1347 1346 1345 1342 1341 1337 1335 1335 1335 1334